EW6086 Weather Reports


time (UTC)temp
C
wind
direction
speed
KPH
gust
KPH
rain 1hr
cm
rain 24hr
cm
rain mn
cm
humidity
%
barometer
mb
20260502130640 15 90 0.0 0.0 0.00 9.53 0.51 85 1018.2
20260502130133 15 90 0.0 0.0 0.00 9.53 0.51 85 1018.3
20260502123604 14 90 0.0 0.0 0.00 9.53 0.51 85 1017.9
20260502123058 14 90 0.0 0.0 0.00 9.53 0.51 86 1018.0
20260502122823 14 90 0.0 0.0 0.00 9.53 0.51 86 1017.9
20260502122046 14 90 0.0 0.0 0.00 9.53 0.51 86 1017.8
20260502121540 14 90 0.0 0.0 0.00 9.53 0.51 86 1017.7
20260502121034 14 90 0.0 0.0 0.00 9.53 0.51 86 1017.7
20260502120758 13 90 0.0 0.0 0.00 9.53 0.51 86 1017.6
20260502120253 13 90 0.0 0.0 0.00 9.53 0.51 86 1017.4
20260502115515 13 90 0.0 0.0 0.00 9.53 0.51 86 1017.2
20260502115009 13 90 0.0 0.0 0.00 9.53 0.51 86 1017.1
20260502114503 14 90 0.0 0.0 0.00 9.53 0.51 86 1017.0
20260502113722 14 90 0.0 0.0 0.00 9.53 0.51 86 1017.0
20260502112946 14 90 0.0 0.0 0.00 9.53 0.51 86 1017.0
20260502112439 14 90 0.0 0.0 0.00 9.53 0.51 86 1017.0
20260502111933 14 90 0.0 0.0 0.00 9.53 0.51 86 1017.0
20260502111658 14 90 0.0 0.0 0.00 9.53 0.51 86 1017.0
20260502110921 14 90 0.0 0.0 0.00 9.53 0.51 86 1017.0
20260502110415 14 90 0.0 0.0 0.00 9.53 0.51 86 1016.7
20260502105909 14 90 0.0 0.0 0.00 9.53 0.51 86 1016.7
20260502105634 14 90 0.0 0.0 0.00 9.53 0.51 86 1016.5
20260502104858 14 90 0.0 0.0 0.00 9.53 0.51 86 1016.5
20260502104352 14 90 0.0 0.0 0.00 9.53 0.51 86 1016.4
20260502103339 14 90 0.0 0.0 0.00 9.53 0.51 86 1016.3
20260502102833 14 90 0.0 0.0 0.00 9.53 0.51 86 1016.2
20260502102332 14 90 0.0 0.0 0.00 9.53 0.51 86 1016.0
20260502102052 14 90 0.0 0.0 0.00 9.53 0.51 86 1015.9
20260502101316 14 90 0.0 0.0 0.00 9.53 0.51 86 1015.7
20260502100823 14 90 0.0 0.0 0.00 9.53 0.51 86 1015.7
20260502100303 14 90 0.0 0.0 0.00 9.53 0.51 87 1015.7
20260502091204 14 90 0.0 0.0 0.00 9.53 0.51 87 1015.6
20260502090929 14 90 0.0 0.0 0.00 9.53 0.51 87 1015.6
20260502090204 14 90 0.0 0.0 0.00 9.53 0.51 87 1015.4
20260502071527 15 90 0.0 0.0 0.08 9.50 0.48 86 1014.7
20260502071024 15 90 0.0 0.0 0.08 9.50 0.48 86 1014.8
20260502070523 15 90 0.0 0.0 0.10 9.50 0.48 86 1014.9
20260502070024 15 90 0.0 0.0 0.10 9.50 0.48 86 1014.9
20260502065523 15 90 0.0 0.0 0.10 9.50 0.48 86 1015.0
20260502065024 15 90 0.0 0.0 0.10 9.50 0.48 86 1015.2
20260502064754 15 90 0.0 0.0 0.10 9.50 0.48 86 1015.3
20260502064023 15 90 0.0 0.0 0.10 9.50 0.48 86 1015.1
20260502063524 15 90 0.0 0.0 0.10 9.47 0.46 86 1015.0
20260502063020 14 90 0.0 0.0 0.10 9.47 0.46 86 1015.1
20260502062518 14 90 0.0 0.0 0.10 9.47 0.46 86 1015.0
20260502062020 14 90 0.0 0.0 0.05 9.42 0.41 86 1014.9
20260502061753 14 90 0.0 0.0 0.05 9.42 0.41 86 1014.7
20260502061031 14 90 0.0 0.0 0.13 9.42 0.41 86 1014.7
20260502060518 14 90 0.0 0.0 0.15 9.40 0.38 86 1014.6
20260502060250 14 90 0.0 0.0 0.38 9.40 0.38 86 1014.5
20260502055518 14 90 0.0 0.0 0.38 9.40 0.38 87 1014.3
20260502054515 14 90 0.0 0.0 0.61 9.40 0.38 86 1014.1
20260502054014 14 90 0.0 0.0 0.64 9.40 0.38 87 1014.1
20260502053514 14 90 0.0 0.0 0.61 9.37 0.36 86 1014.2
20260502053029 14 90 0.0 0.0 0.61 9.37 0.36 86 1014.1
20260502052517 14 90 0.0 0.0 0.84 9.37 0.36 86 1014.2
20260502052014 15 90 0.0 0.0 0.97 9.37 0.36 86 1014.2
20260502051515 15 90 0.0 0.0 1.93 9.37 0.36 86 1014.2
20260502051014 15 90 0.0 0.0 2.59 9.30 0.28 86 1014.2
20260502050747 15 90 0.0 0.0 3.96 9.25 0.23 87 1014.2
20260502050007 15 90 0.0 0.0 4.50 9.02 0.00 87 1014.1
20260502045509 15 90 0.0 0.0 4.78 9.02 9.02 87 1014.0
20260502045240 15 90 0.0 0.0 5.23 8.79 8.79 87 1013.8
20260502044505 15 90 0.0 0.0 5.74 8.79 8.79 87 1013.9
20260502044007 15 90 0.0 0.0 5.71 8.76 8.76 87 1013.6
20260502043506 15 90 0.0 0.0 5.74 8.76 8.76 87 1013.5
20260502042501 15 90 0.0 0.0 5.54 8.53 8.61 87 1013.4
20260502042002 15 90 0.0 0.0 5.49 8.41 8.41 88 1013.3
20260502041515 15 90 0.0 0.0 4.39 7.32 7.44 88 1013.2
20260502041002 16 90 0.0 0.0 3.81 6.71 6.71 88 1013.1
20260502040508 16 90 0.0 0.0 1.80 4.70 5.21 88 1013.1
20260502040225 16 90 0.0 0.0 1.70 4.52 4.52 88 1013.1
20260502035453 16 90 0.0 0.0 1.42 4.24 4.47 88 1013.1
20260502034953 16 90 0.0 0.0 0.74 3.56 3.71 89 1013.1
20260502034447 16 90 0.0 0.0 0.23 3.05 3.05 89 1013.0
20260502033941 16 90 0.0 0.0 0.25 3.05 3.05 89 1013.0
20260502033435 16 90 0.0 0.0 0.33 3.02 3.02 89 1013.1
20260502032930 16 90 0.0 0.0 0.53 3.02 3.02 89 1013.1
20260502032423 16 90 0.0 0.0 0.51 3.00 3.00 89 1013.1
20260502031917 16 90 0.0 0.0 0.43 2.92 2.92 90 1013.0
20260502031411 16 90 0.0 0.0 0.41 2.90 2.90 90 1012.8
20260502030918 16 90 0.0 0.0 0.41 2.90 2.90 90 1012.7
20260502030632 16 90 0.0 0.0 0.41 2.90 2.90 90 1012.6
20260502025853 16 90 0.0 0.0 0.33 2.82 2.82 90 1012.4
20260502025347 16 90 0.0 0.0 0.33 2.82 2.82 90 1012.2
20260502024841 16 90 0.0 0.0 0.33 2.82 2.82 90 1012.0
20260502024606 16 90 0.0 0.0 0.33 2.82 2.82 90 1012.1
20260502024101 16 90 0.0 0.0 0.41 2.79 2.79 90 1012.1
20260502023323 16 90 0.0 0.0 0.20 2.59 2.59 91 1011.9
20260502022817 16 90 0.0 0.0 0.10 2.49 2.49 90 1011.9
20260502022312 16 90 0.0 0.0 0.10 2.49 2.49 90 1011.6
20260502021806 16 90 0.0 0.0 0.13 2.49 2.49 90 1011.6
20260502021300 16 90 0.0 0.0 0.13 2.49 2.49 91 1011.7
20260502020754 16 90 0.0 0.0 0.13 2.49 2.49 91 1011.4
20260502020248 16 90 0.0 0.0 0.15 2.49 2.49 91 1011.4
20260502020012 16 90 0.0 0.0 0.23 2.49 2.49 91 1011.4
20260502015235 16 90 0.0 0.0 0.25 2.49 2.49 91 1011.0
20260502014742 16 90 0.0 0.0 0.56 2.49 2.49 91 1010.9
20260502014454 16 90 0.0 0.0 0.69 2.49 2.49 91 1011.0
20260502014231 16 90 0.0 0.0 0.69 2.49 2.49 91 1011.0
20260502013717 16 90 0.0 0.0 0.61 2.39 2.39 91 1010.9
20260502013212 16 90 0.0 0.0 0.76 2.39 2.39 91 1011.0
20260502012705 16 90 0.0 0.0 0.79 2.39 2.39 91 1010.6
20260502012200 16 90 0.0 0.0 0.79 2.39 2.39 91 1010.6
20260502011925 16 90 0.0 0.0 0.79 2.36 2.36 91 1010.3
20260502011147 16 90 0.0 0.0 0.79 2.36 2.36 91 1010.5
20260502010642 16 90 0.0 0.0 0.86 2.36 2.36 91 1010.6
20260502010136 16 90 0.0 0.0 0.97 2.34 2.34 91 1010.5
20260502005630 16 90 0.0 0.0 0.91 2.26 2.26 91 1010.4
20260502005354 16 90 0.0 0.0 0.89 2.24 2.24 91 1010.2
20260502004849 17 90 0.0 0.0 0.48 1.83 1.91 91 1010.2
20260502004112 17 90 0.0 0.0 0.61 1.80 1.80 91 1010.1
20260502003606 17 90 0.0 0.0 0.48 1.63 1.63 91 1009.9
20260502003100 17 90 0.0 0.0 0.58 1.63 1.63 91 1010.2
20260502002553 17 90 0.0 0.0 0.56 1.60 1.60 91 1010.1
20260502002047 17 90 0.0 0.0 0.64 1.60 1.60 91 1009.9
20260502001541 17 90 0.0 0.0 0.89 1.57 1.57 91 1009.9
20260502001037 17 90 0.0 0.0 1.09 1.57 1.57 91 1009.9
20260502000529 17 90 0.0 0.0 0.97 1.45 1.50 91 1009.7
20260502000024 17 90 0.0 0.0 0.91 1.35 1.35 91 1009.6
20260501235518 17 90 0.0 0.0 0.91 1.35 1.35 91 1009.6
20260501235011 17 90 0.0 0.0 1.02 1.35 1.35 91 1009.3
20260501234511 17 90 0.0 0.0 1.04 1.35 1.35 91 1009.1
20260501234011 17 90 0.0 0.0 0.89 1.19 1.19 91 1009.1
20260501233511 18 90 0.0 0.0 0.91 1.14 1.14 91 1009.0
20260501233009 18 90 0.0 0.0 0.86 1.04 1.04 91 1009.1
20260501231507 18 90 0.0 0.0 0.56 0.69 0.74 91 1009.2
20260501231008 18 90 0.0 0.0 0.41 0.48 0.48 91 1008.6
20260501230506 18 90 0.0 0.0 0.36 0.43 0.48 91 1007.4
20260501230006 18 90 0.0 0.0 0.38 0.43 0.43 91 1006.7
20260501225003 18 90 0.0 0.0 0.28 0.33 0.33 91 1006.2
20260501224503 18 90 0.0 0.0 0.25 0.30 0.33 91 1006.3
20260501224000 18 90 0.0 0.0 0.25 0.30 0.30 91 1006.5
20260501223505 18 90 0.0 0.0 0.18 0.23 0.23 91 1006.3
20260501223000 18 90 0.0 0.0 0.13 0.18 0.18 91 1006.5
20260501222731 18 90 0.0 0.0 0.10 0.15 0.15 91 1006.9
20260501221958 18 90 0.0 0.0 0.08 0.13 0.13 91 1007.1
20260501221457 18 90 0.0 0.0 0.08 0.13 0.13 91 1006.9
20260501221222 18 90 0.0 0.0 0.03 0.08 0.08 91 1006.8
20260501220450 18 90 0.0 0.0 0.03 0.08 0.08 91 1007.0
20260501215948 18 90 0.0 0.0 0.00 0.05 0.05 91 1007.1
20260501215448 18 90 0.0 0.0 0.03 0.05 0.05 91 1007.2
20260501214948 18 90 0.0 0.0 0.03 0.05 0.05 90 1007.3
20260501214449 18 90 0.0 0.0 0.03 0.05 0.05 90 1007.6
20260501214218 18 90 0.0 0.0 0.03 0.05 0.05 90 1007.6
20260501213450 18 90 0.0 0.0 0.05 0.05 0.05 90 1008.0
20260501212950 18 90 0.0 0.0 0.05 0.05 0.05 91 1008.2
20260501212450 18 90 0.0 0.0 0.05 0.05 0.05 91 1007.8
20260501211946 18 90 0.0 0.0 0.05 0.05 0.05 91 1007.7
20260501211445 18 90 0.0 0.0 0.05 0.05 0.05 91 1007.8
20260501210945 18 90 0.0 0.0 0.05 0.05 0.05 91 1008.0
20260501210446 18 90 0.0 0.0 0.05 0.05 0.05 91 1007.8
20260501210215 18 90 0.0 0.0 0.05 0.05 0.05 90 1007.9
20260501205445 18 90 0.0 0.0 0.03 0.03 0.03 90 1007.8
20260501204946 18 90 0.0 0.0 0.03 0.03 0.03 90 1007.7
20260501204445 18 90 0.0 0.0 0.03 0.03 0.03 90 1007.8
20260501203945 18 90 0.0 0.0 0.03 0.03 0.03 90 1008.1
20260501203441 18 90 0.0 0.0 0.00 0.00 0.00 90 1007.9
20260501202940 18 90 0.0 0.0 0.00 0.00 0.00 90 1007.9
20260501202440 18 90 0.0 0.0 0.00 0.00 0.00 90 1008.0
20260501201952 18 90 0.0 0.0 0.00 0.00 0.00 90 1008.2
20260501201434 18 90 0.0 0.0 0.00 0.00 0.00 90 1007.9
20260501200934 18 90 0.0 0.0 0.00 0.00 0.00 90 1007.8